HST 1 20580U 90037B 25310.66648321 .00009647 00000+0 34183-3 0 9998 2 20580 28.4657 157.8958 0001635 179.6694 180.3902 15.27345291754478 POLAR 1 23802U 96013A 25306.59369058 .00000118 00000+0 00000+0 0 9993 2 23802 79.5932 229.5865 6247144 216.7474 77.3392 1.29846380141916 SWAS 1 25560U 98071A 25310.77239375 .00007637 00000+0 50895-3 0 9999 2 25560 69.8966 80.2553 0008755 250.5686 109.4531 15.07427881463722 CXO 1 25867U 99040B 25312.23653082 .00000686 00000+0 00000+0 0 9990 2 25867 52.4220 123.7217 8202474 310.7381 359.8594 0.37807226 16485 XMM-NEWTON 1 25989U 99066A 25310.96813766 .00000070 00000+0 00000+0 0 9995 2 25989 65.6044 285.9094 4760925 68.8428 0.1756 0.50130117 21893 TERRA 1 25994U 99068A 25310.78567911 .00000780 00000+0 16857-3 0 9990 2 25994 97.9800 3.7789 0001953 177.2441 293.1628 14.60887848377138 CLUSTER II-FM7 (SAMBA) 1 26410U 00041A 25312.19151717 .00001568 00000+0 00000+0 0 9991 2 26410 146.9994 21.8632 8693182 237.4171 0.9900 0.44856549 19318 CLUSTER II-FM8 (TANGO) 1 26464U 00045B 25312.75758455 .00001563 00000+0 00000+0 0 9993 2 26464 147.3023 22.4635 8701652 237.8925 0.8700 0.44417236 19322 ODIN 1 26702U 01007A 25310.55150951 .00041717 00000+0 78630-3 0 9993 2 26702 97.4282 337.4022 0001568 242.3561 117.7531 15.48387328354720 TIMED 1 26998U 01055B 25310.49844306 .00002055 00000+0 19390-3 0 9990 2 26998 74.0677 323.1634 0002317 253.5399 106.5531 14.94494809297548 CORIOLIS 1 27640U 03001A 25310.45114176 .00000199 00000+0 11437-3 0 9990 2 27640 98.7153 315.7499 0014804 131.6403 228.6044 14.19851835182616 SORCE 1 27651U 03004A 25310.80186082 .00006943 00000+0 53168-3 0 9999 2 27651 39.9908 88.9175 0017743 253.0552 106.8297 15.01850674238433 MOST 1 27843U 03031D 25310.47149046 .00000129 00000+0 79150-4 0 9994 2 27843 98.7079 316.3060 0010019 169.3738 190.7653 14.21254565159071 SCISAT 1 1 27858U 03036A 25310.82397862 .00001530 00000+0 20190-3 0 9991 2 27858 73.9296 253.0254 0007290 355.7387 4.3725 14.81016803198523 SWIFT 1 28485U 04047A 25310.66885148 .00049986 00000+0 93671-3 0 9993 2 28485 20.5539 74.6922 0005872 124.0878 236.0122 15.46903886152111 HINODE (SOLAR-B) 1 29479U 06041A 25310.50257115 .00001105 00000+0 20013-3 0 9994 2 29479 98.0675 324.8641 0016198 275.0075 84.9281 14.68207955 22190 SHIJIAN-6 02A (SJ-6 02A) 1 29505U 06046A 25310.83571512 .00010208 00000+0 57271-3 0 9995 2 29505 97.6668 345.3558 0003508 158.6730 201.4648 15.13551435 38597 SHIJIAN-6 02B (SJ-6 02B) 1 29506U 06046B 25310.87605787 .00002306 00000+0 18814-3 0 9992 2 29506 97.6887 336.8774 0014874 83.4911 276.8006 15.00344359 37392 FGRST (GLAST) 1 33053U 08029A 25310.36016449 .00005732 00000+0 22810-3 0 9999 2 33053 25.5835 309.8845 0008376 217.9822 142.0125 15.22227549961826 SDO 1 36395U 10005A 25309.43566816 -.00000051 00000+0 00000+0 0 9995 2 36395 34.1819 89.7553 0002302 118.2933 252.0857 1.00271166 57820 CRYOSAT 2 1 36508U 10013A 25310.81454661 .00000372 00000+0 91562-4 0 9991 2 36508 92.0258 223.4729 0002362 82.5872 277.5603 14.51900709825814 X-SAT 1 37389U 11015C 25310.80796495 .00000237 00000+0 11849-3 0 9994 2 37389 98.3278 293.7658 0012860 276.9774 82.9944 14.25106688756003 GCOM-W1 (SHIZUKU) 1 38337U 12025A 25310.81159502 .00001082 00000+0 25013-3 0 9990 2 38337 98.2158 249.4972 0001702 77.8201 309.7546 14.57113155716653 NUSTAR 1 38358U 12031A 25310.91668980 .00007854 00000+0 47020-3 0 9991 2 38358 6.0259 257.9356 0007753 40.8916 126.6344 15.05765487 1306 NEOSSAT 1 39089U 13009D 25310.48330764 .00000283 00000+0 11258-3 0 9990 2 39089 98.4088 130.9087 0010836 184.6763 175.4324 14.35699401664788 BRITE-AUSTRIA 1 39091U 13009F 25310.73112015 .00000365 00000+0 13900-3 0 9995 2 39091 98.3901 130.7789 0010172 178.0779 182.0448 14.36403158665110 IRIS 1 39197U 13033A 25310.48639884 .00002599 00000+0 30914-3 0 9994 2 39197 97.9418 145.3779 0024201 330.1178 29.8653 14.85068311667310 HISAKI (SPRINT-A) 1 39253U 13049A 25310.56000667 .00000187 00000+0 16778-3 0 9997 2 39253 29.7199 271.8385 0136634 12.0534 348.3261 13.55513672601195 CASSIOPE 1 39265U 13055A 25310.77631994 .00037381 -68629-6 51639-3 0 9993 2 39265 80.9374 333.5026 0355555 83.6942 280.4645 15.07821113633943 STSAT-3 1 39422U 13066G 25310.86466295 .00006081 00000+0 48011-3 0 9994 2 39422 97.5890 280.0329 0016567 65.0302 295.2641 15.00948930650835 SWARM B 1 39451U 13067A 25310.81308839 .00006917 00000+0 26323-3 0 9991 2 39451 87.7466 49.7357 0002717 104.4803 255.6747 15.26585853649298 SWARM A 1 39452U 13067B 25310.76377734 .00013910 00000+0 29048-3 0 9994 2 39452 87.3353 138.5029 0002682 86.3136 273.8429 15.45383218671837 SWARM C 1 39453U 13067C 25310.76370846 .00014127 00000+0 29501-3 0 9997 2 39453 87.3349 137.0892 0002657 85.6432 274.5129 15.45385507671791 BRITE-CA1 (TORONTO) 1 40020U 14033L 25310.81972395 .00001913 00000+0 29840-3 0 9991 2 40020 97.9469 79.3536 0078251 268.8055 90.4187 14.72037215609491 OCO 2 1 40059U 14035A 25310.80317360 .00000918 00000+0 21379-3 0 9992 2 40059 98.2157 250.2336 0001649 67.0968 293.0404 14.57090265603661 BRITE-PL2 (HEWELIUSZ) 1 40119U 14049B 25310.55551284 .00003713 00000+0 35856-3 0 9992 2 40119 97.8990 56.2484 0015376 125.7135 234.5518 14.93383920608200 MMS 1 1 40482U 15011A 25310.91668980 -.00000391 00000+0 00000+0 0 9996 2 40482 68.5260 352.1426 8530025 162.7202 306.9036 0.28496507 1372 MMS 2 1 40483U 15011B 25310.91668980 -.00000391 00000+0 00000+0 0 9997 2 40483 68.5314 352.1394 8532658 162.7166 306.9176 0.28496547 1379 MMS 3 1 40484U 15011C 25310.91668980 -.00000391 00000+0 00000+0 0 9998 2 40484 68.5333 352.1498 8531143 162.7313 306.8764 0.28510795 1338 MMS 4 1 40485U 15011D 25310.91668980 -.00000392 00000+0 00000+0 0 9990 2 40485 68.5222 352.1370 8531873 162.7361 306.8618 0.28496369 1370 ASTROSAT 1 40930U 15052A 25310.03893418 .00002401 00000+0 21398-3 0 9998 2 40930 5.9978 320.9133 0007545 87.8658 272.2334 14.81866185546668 DAMPE 1 41173U 15078A 25310.86574223 .00002306 00000+0 81949-4 0 9990 2 41173 97.4544 310.4002 0013319 138.5822 221.6431 15.29982734550545 PISAT 1 41784U 16059B 25310.29772084 .00001586 00000+0 28092-3 0 9998 2 41784 97.8170 315.4765 0028856 194.7981 165.2384 14.68356243487029 HXMT (HUIYAN) 1 42758U 17034A 25310.55281910 .00017209 00000+0 88670-3 0 9993 2 42758 43.0152 340.3562 0032899 179.1309 180.9600 15.15654836463840 FLYING LAPTOP 1 42831U 17042G 25310.83979227 .00004193 00000+0 34504-3 0 9995 2 42831 97.4181 111.1330 0012121 165.2254 194.9326 14.99563786453118 ZHANGHENG 1-01 (CSES-1) 1 43194U 18015C 25310.88094738 .00014102 00000+0 63369-3 0 9991 2 43194 97.6646 107.4365 0015811 338.4830 21.5739 15.21148757430850 SALSAT 1 46495U 20068K 25310.46384889 .00012836 00000+0 51013-3 0 9997 2 46495 97.8760 295.8091 0011212 13.0146 347.1378 15.25399385281355 IXPE 1 49954U 21121A 25310.83336806 .00024385 00000+0 15032-2 0 9990 2 49954 0.2279 196.0401 0007669 322.2315 153.2160 15.07337550 5818